Terminal Aerodrome Forecast
Issued by NWS Brownsville, TX

Home | Current Version | Previous Version | Text Only | Print | Product List | Glossary On
Versions: 1 2 3 4 5 6 7 8 9 10 11 12 13
000
FTUS44 KBRO 251700
TAFBRO
TAF
KBRO 251735Z 2518/2618 17012G20KT P6SM SCT050 SCT250
     FM252200 14015G22KT P6SM FEW050
     FM260200 14009KT P6SM SKC
     FM261500 17014KT P6SM SKC=

USA.gov is the U.S. government's official web portal to all federal, state and local government web resources and services.